View from above orbital plane
|
View from above satellite
|
Ground track
|
The orbit data is extracted from the following two-line orbital elements,
1 31598U 07023A 21102.07687658 -.00000639 00000-0 -73682-4 0 9991
2 31598 97.8894 286.9099 0001642 86.5225 273.6181 14.82152962749061
Epoch (UTC): | 12 April 2021 01:50:42 |
Eccentricity: | 0.0001642 |
inclination: | 97.8894° |
perigee height: | 621 km |
apogee height: | 623 km |
right ascension of ascending node: | 286.9099° |
argument of perigee: | 86.5225° |
revolutions per day: | 14.82152962 |
mean anomaly at epoch: | 273.6181° |
orbit number at epoch: | 74906 |
The dashed part of the orbit path shows where the satellite is in the earth's shadow,
|
|